GAJ421 KHPN-KJFK

Flight info

Callsign GAJ421
Flight time 0h 17m
Altitude 11000
Route JFK
Aircraft PC24/M-SBDGIRWY/LB2

Departure

Time 2026-05-08 21:39
Airport Westchester County Airport (KHPN)

Arrival

Time 2026-05-08 21:57
Airport John F. Kennedy International Airport (KJFK)
Time Latitude Longitude Altitude Speed Heading
2026-05-08 21:20 41.06374 -73.70833 399 ft 0 kts 192°
2026-05-08 21:31 41.06373 -73.70833 399 ft 0 kts 192°
2026-05-08 21:32 41.06372 -73.70834 399 ft 1 kts 192°
2026-05-08 21:32 41.06363 -73.70841 400 ft 0 kts 236°
2026-05-08 21:32 41.06363 -73.70843 400 ft 0 kts 245°
2026-05-08 21:33 41.06365 -73.70871 401 ft 8 kts 307°
2026-05-08 21:33 41.06414 -73.70874 401 ft 0 kts 25°
2026-05-08 21:33 41.06415 -73.70874 401 ft 1 kts 25°
2026-05-08 21:34 41.06437 -73.70832 400 ft 11 kts 91°
2026-05-08 21:34 41.06414 -73.70691 396 ft 19 kts 113°
2026-05-08 21:34 41.06341 -73.70639 393 ft 10 kts 193°
2026-05-08 21:34 41.06279 -73.70606 391 ft 11 kts 149°
2026-05-08 21:35 41.06202 -73.70550 385 ft 14 kts 149°
2026-05-08 21:35 41.06110 -73.70476 381 ft 16 kts 152°
2026-05-08 21:35 41.06015 -73.70403 379 ft 16 kts 142°
2026-05-08 21:35 41.05956 -73.70317 376 ft 10 kts 106°
2026-05-08 21:36 41.05969 -73.70232 375 ft 6 kts 61°
2026-05-08 21:36 41.05969 -73.70230 375 ft 0 kts 60°
2026-05-08 21:38 41.05970 -73.70229 375 ft 0 kts 59°
2026-05-08 21:38 41.05971 -73.70227 375 ft 3 kts 59°
2026-05-08 21:38 41.06014 -73.70162 376 ft 14 kts 12°
2026-05-08 21:38 41.06086 -73.70208 378 ft 13 kts 331°
2026-05-08 21:39 41.06383 -73.70435 392 ft 90 kts 330°
2026-05-08 21:39 41.07122 -73.71023 580 ft 150 kts 329°
2026-05-08 21:39 41.08118 -73.71758 1312 ft 179 kts 319°
2026-05-08 21:39 41.08873 -73.73121 2282 ft 187 kts 291°
2026-05-08 21:40 41.09266 -73.74793 3076 ft 197 kts 284°
2026-05-08 21:40 41.09598 -73.76628 3055 ft 215 kts 281°
2026-05-08 21:40 41.09859 -73.78537 2986 ft 213 kts 280°
2026-05-08 21:41 41.10490 -73.82676 3061 ft 232 kts 282°
2026-05-08 21:41 41.10730 -73.84725 3750 ft 237 kts 273°
2026-05-08 21:41 41.10248 -73.86889 3661 ft 254 kts 237°
2026-05-08 21:41 41.08821 -73.88252 3561 ft 262 kts 201°
2026-05-08 21:42 41.06962 -73.88180 4352 ft 272 kts 171°
2026-05-08 21:42 41.05087 -73.87529 5049 ft 291 kts 169°
2026-05-08 21:42 41.03146 -73.86792 5003 ft 285 kts 167°
2026-05-08 21:42 41.01279 -73.86051 4994 ft 277 kts 167°
2026-05-08 21:43 40.99442 -73.85311 4999 ft 275 kts 167°
2026-05-08 21:43 40.97608 -73.84571 4993 ft 276 kts 167°
2026-05-08 21:43 40.95767 -73.83830 4993 ft 277 kts 167°
2026-05-08 21:43 40.93916 -73.83085 4995 ft 279 kts 167°
2026-05-08 21:44 40.92069 -73.82332 4999 ft 278 kts 167°
2026-05-08 21:44 40.90221 -73.81575 4995 ft 278 kts 167°
2026-05-08 21:44 40.88373 -73.80828 4988 ft 277 kts 167°
2026-05-08 21:44 40.86533 -73.80077 4989 ft 277 kts 167°
2026-05-08 21:45 40.84689 -73.79326 4988 ft 277 kts 167°
2026-05-08 21:45 40.82855 -73.78579 4981 ft 275 kts 167°
2026-05-08 21:45 40.81034 -73.77829 4985 ft 274 kts 167°
2026-05-08 21:45 40.79218 -73.77080 4983 ft 274 kts 167°
2026-05-08 21:46 40.77393 -73.76332 4985 ft 275 kts 167°
2026-05-08 21:46 40.75565 -73.75580 4989 ft 275 kts 167°
2026-05-08 21:46 40.73733 -73.74827 4998 ft 277 kts 167°
2026-05-08 21:46 40.71895 -73.74068 4998 ft 276 kts 167°
2026-05-08 21:47 40.70064 -73.73312 4998 ft 276 kts 167°
2026-05-08 21:47 40.68235 -73.72560 4995 ft 275 kts 167°
2026-05-08 21:47 40.66404 -73.71810 4998 ft 276 kts 167°
2026-05-08 21:47 40.64652 -73.70786 4984 ft 282 kts 145°
2026-05-08 21:48 40.63529 -73.68667 4993 ft 289 kts 110°
2026-05-08 21:48 40.63107 -73.66080 5011 ft 290 kts 99°
2026-05-08 21:48 40.62828 -73.63429 5012 ft 294 kts 97°
2026-05-08 21:48 40.62567 -73.60752 5006 ft 293 kts 97°
2026-05-08 21:49 40.62314 -73.58121 4365 ft 289 kts 97°
2026-05-08 21:49 40.62057 -73.55495 3659 ft 287 kts 97°
2026-05-08 21:49 40.61802 -73.52924 3156 ft 278 kts 97°
2026-05-08 21:49 40.61564 -73.50440 3001 ft 271 kts 97°
2026-05-08 21:50 40.61174 -73.47997 2995 ft 279 kts 115°
2026-05-08 21:50 40.59905 -73.46112 2997 ft 277 kts 152°
2026-05-08 21:50 40.58094 -73.45501 3000 ft 268 kts 186°
2026-05-08 21:50 40.56321 -73.46094 3016 ft 262 kts 204°
2026-05-08 21:51 40.54633 -73.46998 3007 ft 260 kts 213°
2026-05-08 21:51 40.53383 -73.48614 3002 ft 251 kts 240°
2026-05-08 21:51 40.52640 -73.50666 3005 ft 248 kts 256°
2026-05-08 21:51 40.52367 -73.52892 3005 ft 246 kts 261°
2026-05-08 21:52 40.52374 -73.55050 2822 ft 237 kts 290°
2026-05-08 21:52 40.53273 -73.56865 2403 ft 239 kts 304°
2026-05-08 21:52 40.54193 -73.58591 2155 ft 230 kts 304°
2026-05-08 21:52 40.55106 -73.60301 1941 ft 228 kts 302°
2026-05-08 21:53 40.55975 -73.62062 1738 ft 230 kts 302°
2026-05-08 21:53 40.56820 -73.63827 1540 ft 232 kts 296°
2026-05-08 21:53 40.57613 -73.65788 1317 ft 250 kts 297°
2026-05-08 21:53 40.58520 -73.67845 1345 ft 262 kts 301°
2026-05-08 21:54 40.59540 -73.69886 1226 ft 275 kts 302°
2026-05-08 21:54 40.60476 -73.71818 836 ft 221 kts 299°
2026-05-08 21:54 40.61059 -73.73273 735 ft 151 kts 297°
2026-05-08 21:54 40.61553 -73.74430 491 ft 145 kts 301°
2026-05-08 21:55 40.62070 -73.75590 334 ft 148 kts 302°
2026-05-08 21:55 40.62609 -73.76763 169 ft 146 kts 304°
2026-05-08 21:55 40.63093 -73.77831 36 ft 123 kts 306°
2026-05-08 21:56 40.63779 -73.79360 14 ft 77 kts 305°
2026-05-08 21:56 40.64010 -73.79922 17 ft 63 kts 318°
2026-05-08 21:57 40.64399 -73.80442 16 ft 14 kts 33°
2026-05-08 21:57 40.64419 -73.80423 16 ft 0 kts 15°